Weather in Oniskovichi

Belarus     52°07′36″N   24°42′51″E
temp.,
°C
wind,
m/s
gust,
m/s
humid.,
%
clouds,
%
prec.,
mm/h
press.,
hPa
HPBL,
m
20 january, thu
thu2000:000sw51091100 0.0 1014382
03:00−1ssw61590100 0.0 1011459
06:00−1sw71679100 0.0 1007591
09:00−1sw91792100 0.1 1004923
12:00+1wsw91597100 1.0 10031195
15:00+1wsw814725 1.1 10021253
18:00−1w61378100 2.2 10011049
21:00−3w7128836 2.3 1002716
21 january, fri
fri2100:00−4w7138078 0.0 1003746
03:00−3w91592100 0.2 10031113
06:00−3w111873100 0.1 10031145
09:00−3w122087100 0.2 10031181
12:00−1wnw111885100 0.4 10041438
15:00−2wnw111993100 0.8 10041339
18:00−1nw91679100 1.0 10051187
21:00−2nw81478100 1.1 1007936
22 january, sat
sat2200:00−2wnw81581100 0.1 10091062
03:00−3wnw81492100 0.6 10091088
06:00−3nw71388100 0.4 1008987
09:00−4nw7129499 0.8 1010921
12:00−4nnw7118698 0.1 1013931
15:00−3nnw7108486 0.3 1014962
18:00−3nnw61295100 0.2 1016954
21:00−3nnw6119194 1.0 1019734
23 january, sun
sun2300:00−6nnw499263 0.0 1021322
03:00−6nnw51093100 0.0 1023452
06:00−6nnw5119295 0.0 1023569
09:00−5nnw51195100 0.3 1024818
12:00−5n61091100 0.2 1025737
15:00−5nne578399 0.4 1026925
18:00−7nne378975 0.1 1028179
21:00−9nne269411 0.1 1030119
24 january, mon
mon2400:00−10nne249518 0.0 103283
03:00−11ne249636 0.0 103277
06:00−12ne129639 0.0 103242
09:00−13e119638 0.0 103327
12:00−9s229053 0.0 1033154
15:00−7ssw348671 0.0 1031317
18:00−9s24957 0.0 103062
21:00−9s3794100 0.0 1029149